UAE5265 OMDB-OOMS

Flight info

Callsign UAE5265
Flight time 0h 41m
Altitude 25000
Route ANVIX L223 TARDI N629 MUSUK T511 MCT
Aircraft B772/H-SDE2E3FGHIJ5LORVWXY/LB1D1

Departure

Time 2026-05-04 14:13
Airport Dubai International Airport (OMDB)

Arrival

Time 2026-05-04 14:55
Airport Muscat International Airport (OOMS)
Time Latitude Longitude Altitude Speed Heading
2026-05-04 13:38 25.24765 55.36498 34 ft 0 kts 212°
2026-05-04 14:00 25.24768 55.36500 33 ft 3 kts 212°
2026-05-04 14:00 25.24791 55.36516 34 ft 1 kts 211°
2026-05-04 14:00 25.24804 55.36523 33 ft 2 kts 199°
2026-05-04 14:01 25.24818 55.36527 35 ft 2 kts 186°
2026-05-04 14:01 25.24833 55.36527 36 ft 2 kts 174°
2026-05-04 14:01 25.24861 55.36517 38 ft 2 kts 149°
2026-05-04 14:02 25.24872 55.36507 38 ft 2 kts 136°
2026-05-04 14:02 25.24882 55.36495 38 ft 1 kts 123°
2026-05-04 14:02 25.24884 55.36492 37 ft 0 kts 121°
2026-05-04 14:03 25.24883 55.36492 37 ft 0 kts 121°
2026-05-04 14:03 25.24883 55.36494 37 ft 0 kts 121°
2026-05-04 14:04 25.24852 55.36548 41 ft 7 kts 120°
2026-05-04 14:04 25.24820 55.36609 44 ft 10 kts 118°
2026-05-04 14:04 25.24789 55.36694 47 ft 14 kts 106°
2026-05-04 14:05 25.24682 55.36974 48 ft 21 kts 121°
2026-05-04 14:05 25.24607 55.37110 50 ft 21 kts 121°
2026-05-04 14:05 25.24529 55.37250 54 ft 20 kts 121°
2026-05-04 14:06 25.24459 55.37379 56 ft 20 kts 117°
2026-05-04 14:06 25.24382 55.37519 51 ft 23 kts 123°
2026-05-04 14:06 25.24295 55.37672 49 ft 19 kts 120°
2026-05-04 14:06 25.24294 55.37790 55 ft 12 kts 45°
2026-05-04 14:07 25.24340 55.37824 58 ft 5 kts 32°
2026-05-04 14:07 25.24351 55.37832 58 ft 0 kts 32°
2026-05-04 14:07 25.24354 55.37833 58 ft 0 kts 32°
2026-05-04 14:08 25.24354 55.37834 58 ft 0 kts 32°
2026-05-04 14:10 25.24364 55.37841 58 ft 4 kts 32°
2026-05-04 14:10 25.24407 55.37872 58 ft 9 kts 33°
2026-05-04 14:10 25.24466 55.37918 58 ft 11 kts 35°
2026-05-04 14:10 25.24539 55.37973 58 ft 7 kts 33°
2026-05-04 14:11 25.24590 55.38009 58 ft 9 kts 34°
2026-05-04 14:11 25.24638 55.38045 58 ft 0 kts 31°
2026-05-04 14:11 25.24639 55.38046 58 ft 0 kts 31°
2026-05-04 14:12 25.24640 55.38046 58 ft 0 kts 31°
2026-05-04 14:12 25.24650 55.38053 58 ft 3 kts 30°
2026-05-04 14:12 25.24765 55.38089 58 ft 12 kts 328°
2026-05-04 14:13 25.24805 55.38030 58 ft 3 kts 301°
2026-05-04 14:13 25.24891 55.37875 56 ft 69 kts 300°
2026-05-04 14:13 25.25325 55.37099 57 ft 163 kts 300°
2026-05-04 14:13 25.25969 55.35953 866 ft 179 kts 301°
2026-05-04 14:14 25.26589 55.34865 1967 ft 169 kts 301°
2026-05-04 14:14 25.27899 55.32483 3296 ft 194 kts 301°
2026-05-04 14:14 25.28604 55.31194 3858 ft 203 kts 302°
2026-05-04 14:15 25.28952 55.28026 3995 ft 226 kts 251°
2026-05-04 14:15 25.27562 55.24755 4889 ft 241 kts 247°
2026-05-04 14:16 25.26167 55.21493 6705 ft 241 kts 248°
2026-05-04 14:16 25.25449 55.19800 6966 ft 252 kts 248°
2026-05-04 14:17 25.23007 55.17001 6996 ft 270 kts 198°
2026-05-04 14:17 25.21077 55.16795 7593 ft 285 kts 178°
2026-05-04 14:17 25.17610 55.18641 9144 ft 294 kts 124°
2026-05-04 14:18 25.16603 55.20638 9646 ft 308 kts 111°
2026-05-04 14:18 25.14723 55.24926 11416 ft 315 kts 114°
2026-05-04 14:19 25.12674 55.29236 13106 ft 323 kts 115°
2026-05-04 14:19 25.11618 55.31430 13981 ft 326 kts 116°
2026-05-04 14:19 25.10551 55.33648 14589 ft 333 kts 115°
2026-05-04 14:19 25.09555 55.35981 14752 ft 336 kts 111°
2026-05-04 14:20 25.08591 55.38402 15311 ft 348 kts 112°
2026-05-04 14:20 25.07622 55.40792 16460 ft 341 kts 112°
2026-05-04 14:20 25.06673 55.43158 17293 ft 344 kts 111°
2026-05-04 14:21 25.04746 55.48219 18259 ft 373 kts 111°
2026-05-04 14:21 25.03722 55.50889 18961 ft 379 kts 112°
2026-05-04 14:21 25.02692 55.53568 19750 ft 383 kts 112°
2026-05-04 14:21 25.01541 55.56212 20475 ft 387 kts 119°
2026-05-04 14:22 25.00168 55.58791 21166 ft 392 kts 121°
2026-05-04 14:22 24.98780 55.61356 21872 ft 396 kts 121°
2026-05-04 14:22 24.97358 55.63983 22560 ft 400 kts 121°
2026-05-04 14:22 24.95922 55.66636 23196 ft 405 kts 122°
2026-05-04 14:23 24.92853 55.71887 24373 ft 414 kts 127°
2026-05-04 14:23 24.91156 55.74448 24733 ft 418 kts 128°
2026-05-04 14:23 24.89429 55.77047 24783 ft 416 kts 128°
2026-05-04 14:24 24.87731 55.79604 24792 ft 414 kts 128°
2026-05-04 14:24 24.86032 55.82161 24803 ft 413 kts 128°
2026-05-04 14:24 24.84334 55.84716 24811 ft 415 kts 128°
2026-05-04 14:24 24.82626 55.87261 24818 ft 414 kts 128°
2026-05-04 14:25 24.80899 55.89807 24831 ft 414 kts 128°
2026-05-04 14:25 24.77293 55.94699 24845 ft 412 kts 137°
2026-05-04 14:25 24.75230 55.96852 24861 ft 410 kts 139°
2026-05-04 14:26 24.73132 55.99009 24871 ft 411 kts 139°
2026-05-04 14:26 24.71058 56.01140 24877 ft 410 kts 139°
2026-05-04 14:26 24.68971 56.03285 24874 ft 410 kts 139°
2026-05-04 14:26 24.66886 56.05429 24871 ft 411 kts 139°
2026-05-04 14:27 24.64787 56.07589 24870 ft 411 kts 139°
2026-05-04 14:27 24.62712 56.09724 24872 ft 411 kts 139°
2026-05-04 14:27 24.60622 56.11874 24880 ft 412 kts 139°
2026-05-04 14:27 24.58541 56.14012 24888 ft 411 kts 139°
2026-05-04 14:28 24.56505 56.16266 24898 ft 412 kts 133°
2026-05-04 14:28 24.54636 56.18628 24907 ft 413 kts 132°
2026-05-04 14:28 24.52763 56.21021 24914 ft 412 kts 132°
2026-05-04 14:28 24.50886 56.23417 24924 ft 412 kts 132°
2026-05-04 14:29 24.47161 56.28165 24929 ft 413 kts 132°
2026-05-04 14:29 24.43421 56.32923 24896 ft 413 kts 132°
2026-05-04 14:30 24.41541 56.35313 24878 ft 413 kts 132°
2026-05-04 14:30 24.39670 56.37691 24862 ft 413 kts 132°
2026-05-04 14:30 24.35902 56.42473 24822 ft 413 kts 131°
2026-05-04 14:31 24.34028 56.44850 24802 ft 412 kts 132°
2026-05-04 14:31 24.30283 56.49596 24777 ft 413 kts 131°
2026-05-04 14:32 24.26807 56.54575 24771 ft 413 kts 126°
2026-05-04 14:32 24.25123 56.57166 24762 ft 413 kts 126°
2026-05-04 14:32 24.23463 56.59705 24757 ft 412 kts 126°
2026-05-04 14:32 24.21783 56.62260 24753 ft 413 kts 126°
2026-05-04 14:33 24.20106 56.64803 24754 ft 413 kts 126°
2026-05-04 14:33 24.18432 56.67335 24753 ft 413 kts 127°
2026-05-04 14:33 24.16746 56.69879 24692 ft 408 kts 127°
2026-05-04 14:33 24.15064 56.72409 24336 ft 419 kts 127°
2026-05-04 14:34 24.13315 56.75038 23799 ft 436 kts 127°
2026-05-04 14:34 24.11493 56.77775 23227 ft 452 kts 126°
2026-05-04 14:34 24.09610 56.80602 22668 ft 465 kts 126°
2026-05-04 14:34 24.07696 56.83472 22098 ft 478 kts 126°
2026-05-04 14:35 24.05720 56.86434 21779 ft 483 kts 126°
2026-05-04 14:35 24.03743 56.89397 21782 ft 480 kts 126°
2026-05-04 14:35 24.01775 56.92341 21792 ft 478 kts 126°
2026-05-04 14:35 23.99809 56.95277 21789 ft 476 kts 126°
2026-05-04 14:36 23.97864 56.98184 21790 ft 474 kts 126°
2026-05-04 14:36 23.95944 57.01049 21788 ft 472 kts 126°
2026-05-04 14:36 23.93985 57.03971 21802 ft 470 kts 126°
2026-05-04 14:36 23.92075 57.06818 21798 ft 469 kts 126°
2026-05-04 14:37 23.90157 57.09676 21810 ft 467 kts 126°
2026-05-04 14:37 23.88239 57.12532 21806 ft 466 kts 126°
2026-05-04 14:37 23.86312 57.15402 21792 ft 458 kts 126°
2026-05-04 14:37 23.84454 57.18169 21789 ft 453 kts 126°
2026-05-04 14:38 23.82631 57.20882 21749 ft 438 kts 126°
2026-05-04 14:38 23.80853 57.23525 21641 ft 421 kts 125°
2026-05-04 14:38 23.79157 57.26044 21554 ft 406 kts 125°
2026-05-04 14:38 23.77492 57.28518 21470 ft 390 kts 125°
2026-05-04 14:39 23.75922 57.30848 21420 ft 375 kts 125°
2026-05-04 14:39 23.74397 57.33111 21134 ft 372 kts 125°
2026-05-04 14:39 23.72866 57.35382 20706 ft 371 kts 125°
2026-05-04 14:40 23.70116 57.40057 19862 ft 363 kts 109°
2026-05-04 14:40 23.69439 57.42672 19403 ft 358 kts 96°
2026-05-04 14:40 23.69082 57.45409 18913 ft 357 kts 94°
2026-05-04 14:40 23.68758 57.48086 18449 ft 355 kts 94°
2026-05-04 14:41 23.68439 57.50721 17971 ft 355 kts 94°
2026-05-04 14:41 23.68114 57.53415 17375 ft 358 kts 94°
2026-05-04 14:41 23.67460 57.58819 16159 ft 363 kts 94°
2026-05-04 14:42 23.66797 57.64267 14898 ft 365 kts 95°
2026-05-04 14:42 23.66463 57.67010 14264 ft 368 kts 96°
2026-05-04 14:42 23.66125 57.69778 13634 ft 369 kts 96°
2026-05-04 14:43 23.65782 57.72582 12986 ft 370 kts 96°
2026-05-04 14:43 23.65444 57.75341 12346 ft 371 kts 97°
2026-05-04 14:43 23.65105 57.78110 11704 ft 371 kts 97°
2026-05-04 14:43 23.64764 57.80882 11055 ft 371 kts 98°
2026-05-04 14:44 23.64417 57.83698 10400 ft 371 kts 98°
2026-05-04 14:44 23.64075 57.86463 9788 ft 370 kts 98°
2026-05-04 14:44 23.63732 57.89237 9153 ft 369 kts 99°
2026-05-04 14:44 23.63391 57.92008 8521 ft 368 kts 98°
2026-05-04 14:45 23.63053 57.94758 7894 ft 367 kts 100°
2026-05-04 14:45 23.62412 57.97423 7229 ft 365 kts 104°
2026-05-04 14:45 23.61998 58.00133 6669 ft 362 kts 97°
2026-05-04 14:45 23.61691 58.02857 5995 ft 362 kts 96°
2026-05-04 14:46 23.61394 58.05545 5297 ft 362 kts 96°
2026-05-04 14:46 23.61090 58.08287 4590 ft 362 kts 96°
2026-05-04 14:46 23.60596 58.10952 4088 ft 357 kts 103°
2026-05-04 14:46 23.59923 58.13473 3886 ft 344 kts 105°
2026-05-04 14:47 23.59247 58.15876 3984 ft 322 kts 104°
2026-05-04 14:47 23.58558 58.18196 3694 ft 317 kts 114°
2026-05-04 14:47 23.57279 58.20139 3323 ft 318 kts 133°
2026-05-04 14:47 23.55498 58.21560 2922 ft 317 kts 151°
2026-05-04 14:48 23.53465 58.22311 2782 ft 306 kts 170°
2026-05-04 14:48 23.51407 58.22125 2856 ft 286 kts 202°
2026-05-04 14:48 23.49819 58.20939 2665 ft 277 kts 229°
2026-05-04 14:48 23.48862 58.19139 2435 ft 268 kts 255°
2026-05-04 14:49 23.48708 58.17216 2438 ft 248 kts 280°
2026-05-04 14:49 23.49271 58.15513 2346 ft 233 kts 310°
2026-05-04 14:49 23.50449 58.14373 2003 ft 223 kts 326°
2026-05-04 14:49 23.51651 58.13482 1801 ft 195 kts 329°
2026-05-04 14:50 23.52784 58.12727 1439 ft 187 kts 334°
2026-05-04 14:50 23.53894 58.12402 1695 ft 147 kts 358°
2026-05-04 14:50 23.54927 58.12384 1582 ft 150 kts
2026-05-04 14:50 23.55999 58.12494 1571 ft 160 kts 15°
2026-05-04 14:51 23.56956 58.13002 1448 ft 147 kts 37°
2026-05-04 14:51 23.57603 58.13771 1479 ft 134 kts 52°
2026-05-04 14:51 23.58062 58.14648 1524 ft 131 kts 59°
2026-05-04 14:51 23.58397 58.15582 1597 ft 132 kts 70°
2026-05-04 14:52 23.58487 58.16589 1579 ft 135 kts 85°
2026-05-04 14:52 23.58490 58.17600 1555 ft 134 kts 85°
2026-05-04 14:52 23.58497 58.18624 1498 ft 135 kts 82°
2026-05-04 14:52 23.58586 58.19659 1289 ft 137 kts 79°
2026-05-04 14:53 23.58684 58.20702 1053 ft 139 kts 81°
2026-05-04 14:53 23.58769 58.21729 875 ft 139 kts 82°
2026-05-04 14:53 23.58857 58.22794 725 ft 142 kts 82°
2026-05-04 14:53 23.58951 58.23847 540 ft 138 kts 81°
2026-05-04 14:54 23.59041 58.24920 416 ft 143 kts 83°
2026-05-04 14:54 23.59113 58.25984 253 ft 137 kts 83°
2026-05-04 14:54 23.59195 58.27029 83 ft 134 kts 83°
2026-05-04 14:54 23.59269 58.27932 49 ft 100 kts 85°
2026-05-04 14:55 23.59316 58.28524 49 ft 56 kts 84°
2026-05-04 14:55 23.59336 58.28781 49 ft 11 kts 88°
2026-05-04 14:55 23.59337 58.28801 49 ft 4 kts 86°
2026-05-04 14:55 23.59342 58.28869 49 ft 14 kts 85°
2026-05-04 14:56 23.59354 58.29010 49 ft 22 kts 91°
2026-05-04 14:56 23.59277 58.29081 49 ft 13 kts 178°
2026-05-04 14:56 23.59189 58.29098 49 ft 11 kts 143°
2026-05-04 14:56 23.59161 58.29180 49 ft 13 kts 95°
2026-05-04 14:57 23.59169 58.29278 49 ft 14 kts 80°
2026-05-04 14:57 23.59133 58.29357 49 ft 10 kts 168°
2026-05-04 14:57 23.59100 58.29397 49 ft 6 kts 109°
2026-05-04 14:57 23.59099 58.29438 49 ft 5 kts 85°
2026-05-04 14:58 23.59099 58.29444 49 ft 0 kts 86°